Regional Weather Roundup
Issued by NWS Upton, NY

Current Version | Previous Version | Graphics & Text | Print | Product List | Glossary Off
Versions: 1 2 3 4 5 6 7 8 9 10 11 12 13 14 15 16 17 18 19 20 21 22 23 24 25 26 27 28 29 30 31 32 33 34 35 36 37 38 39 40 41 42 43 44 45 46 47 48 49 50
617 ASUS41 KOKX 211009 RWROKX REGIONAL WEATHER ROUNDUP NATIONAL WEATHER SERVICE NEW YORK NY 600 AM EDT THU SEP 21 2017 NOTE: "FAIR" INDICATES FEW OR NO CLOUDS BELOW 12,000 FEET WITH NO SIGNIFICANT WEATHER AND/OR OBSTRUCTIONS TO VISIBILITY. NYZ071-072-176-178-NJZ106-104-211100- NEW YORK CITY METRO AREA CITY SKY/WX TMP DP RH WIND PRES REMARKS Central Park CLOUDY 72 64 76 N6 29.99S Bronx Bot Gard N/A 70 63 78 N8 29.96F LaGuardia APRT CLOUDY 73 65 75 N14 29.95R Kennedy INTL CLOUDY 73 63 70 N16 29.95R Breezy Point N/A 73 N/A N/A N10G16 N/A Newark/Liberty CLOUDY 73 64 73 N12 29.97R Teterboro MOCLDY 71 65 81 NW6 29.96R $$ NYZ177-179-078>081-211100- LONG ISLAND NEW YORK CITY SKY/WX TMP DP RH WIND PRES REMARKS Jones Beach N/A 72 N/A N/A N15G22 N/A Matinecock PT N/A 72 N/A N/A N17 N/A Farmingdale CLOUDY 72 63 73 N14G21 29.94R MacArthur/ISP CLOUDY 71 65 81 N12 29.92R Shirley CLOUDY 74 65 73 N13 29.93R Mt Sinai Harb N/A N/A N/A N/A NW7 N/A Westhampton PTCLDY 71 63 75 N14G21 29.92R East Hampton CLOUDY 71 63 76 N13G22 29.89R Montauk N/A 71 65 81 N14G20 29.88R $$ NYZ052-065-067-211100- HUDSON VALLEY CITY SKY/WX TMP DP RH WIND PRES REMARKS White Plains CLOUDY 69 63 81 N13 29.97R Larchmont Harb N/A 72 N/A N/A NW13G18 N/A Croton On Huds N/A 70 N/A N/A N3G9 N/A Newburgh CLOUDY 70 66 88 NE8 30.02R Montgomery CLOUDY 63 62 97 CALM 30.01R Poughkeepsie CLOUDY 67 63 87 VRB3 29.99S Albany CLOUDY 64 62 93 N3 30.05R $$ NJZ001-105-106-008-010-013-015-019>022-104-211100- NEW JERSEY CITY SKY/WX TMP DP RH WIND PRES REMARKS Newark/Liberty CLOUDY 73 64 73 N12 29.97R Teterboro MOCLDY 71 65 81 NW6 29.96R Caldwell MOCLDY 70 65 84 NW3 29.99R Somerville NOT AVBL Linden FAIR 71 63 77 CALM 29.98R Perth Amboy N/A 72 N/A N/A NW8 N/A Sussex CLOUDY 62 62 100 CALM 30.02R Andover N/A 61 61 100 CALM 30.03R Trenton MOCLDY 68 63 84 NW5 30.00R Millville CLOUDY 70 67 90 NW5 29.99R Atlantic City CLOUDY 67 64 90 NW5 29.98R Wrightstown CLOUDY 68 64 87 NW7 29.97R Toms River CLOUDY 68 64 87 NW9 29.98R Belmar CLOUDY 67 64 90 NW8 29.98R $$ PAZ047>061-062-071-211100- EASTERN PENNSYLVANIA CITY SKY/WX TMP DP RH WIND PRES REMARKS Philadelphia MOCLDY 71 63 75 N7 30.01R Allentown PTCLDY 63 59 87 W3 30.04R Scranton PTCLDY 63 61 93 SW5 30.09R $$ CTZ002-004>006-009-010-012-RIZ004-006-007-MAZ004-011-015-211100- SOUTHERN NEW ENGLAND IN CT CITY SKY/WX TMP DP RH WIND PRES REMARKS Bradley INTL CLOUDY 70 61 73 N15G22 29.96R Hartford CLOUDY 72 63 73 N10 29.94R Danbury CLOUDY 68 64 87 VRB5 29.99R Wtrbury/Oxford CLOUDY 68 62 81 N14 29.98R Norwalk Harbor N/A 70 N/A N/A N12 N/A Bridgeport MOCLDY 72 62 71 N10 29.94R Meriden CLOUDY 71 61 70 N12G18 29.94R New Haven CLOUDY 73 62 68 N12G20 29.93R Chester PTSUNNY 70 64 83 N14 29.93R Groton CLOUDY 72 63 73 N16 29.88R Wilimantic CLOUDY 72 63 73 N13G25 29.93R IN RI CITY SKY/WX TMP DP RH WIND PRES REMARKS Providence CLOUDY 71 65 81 N20 29.89R Block Island CLOUDY 70 64 81 N18G28 29.85R Westerly CLOUDY 73 63 70 N16G25 29.88R IN MA CITY SKY/WX TMP DP RH WIND PRES REMARKS Boston CLOUDY 69 64 84 N26G35 29.92R Worcester CLOUDY 66 58 75 N16G25 29.98R Westfield CLOUDY 69 62 78 N13 29.97R Provincetown CLOUDY 62 61 96 NE23G32 29.84R FOG Nantucket LGT RAIN 65 65 100 N33G47 29.70R FOG $$ ANZ330-335-338-340-345-350-353-355-211100- COASTAL MARINE OBSERVATIONS STATION/POSITION TIME SKY/WX TEMP WIND PRES VSBY WAVE AIR SEA DIR/SP/G HT/PER (UTC) (F) (DEG/KT/KT) (MB) (MI) (FT/S) NY HARB ENTRANCE 0850 73 70 350/ 16/ 17 1012.6 5/ 9 20 S FIRE ISLAND 0950 70 68 340/ 16/ 17 1012.7 5/ 8 GREAT SOUTH BAY 0930 72 71 350/ 12/ 14 N/A 23 SSW MONTAUK P 0950 70 66 1011.1 5/ 9 15 E BARNEGAT LI 0930 68 N/A 5/ 9 HUDSON CANYON 0850 70 69 320/ 17/ 19 1010.4 6/ 9 KINGS POINT 0948 72 71 30/ 14/ 17 1015.0 EXECUTION ROCKS 0945 72 10/ 14/ 17 N/A WESTERN LI SOUND NOT AVBL CENTRAL LI SOUND 0945 72 350/ 16/ 19 N/A 2 EASTERN LI SOUND NOT AVBL ROBBINS REEF 0948 72 340/ 13/ 16 1015.1 $$ >>>>>>>>>>>>>>>>>>>>>>>>>>>> KEY <<<<<<<<<<<<<<<<<<<<<<<<<<< > < > SKY/WX - Sky Condition/Present Weather < > TMP - Temperature in Fahrenheit < > DP - Dew Point in Fahrenheit < > RH - Relative Humidity in Percent < > WIND - Direction (from) and Speed in MPH < > PRES - Mean Sea Level Pressure (inches of Hg) < > WCI - Wind Chill Index < > VSB - VISIBILITY IN MILES < > HX - HEAT INDEX < > TC - TEMPERATURE IN CELSIUS < > VRB - VARIABLE WIND DIRECTION < > < >>>>>>>>>>>>>>>>>>>>>>>>>>>> KEY <<<<<<<<<<<<<<<<<<<<<<<<<<<

USA.gov is the U.S. government's official web portal to all federal, state and local government web resources and services.